[[{"header":{"parameterUnit":"m.s-1","parameterCategory":2,"la1":30.2992,"la2":30.254,"lo1":-89.0895,"lo2":-89.0443,"dy":0.0025,"dx":0.0025,"nx":19,"ny":19,"refTime":"2026-04-21T21:00:00:Z","depth":"0","parameterNumber":2,"parameterNumberName":"U-component_of_CURRENTS"},"data":[0,0,0,-0.1689,-0.1689,-0.1701,-0.1701,-0.1689,-0.1689,0,0,0,0,0,0,0,0,0,0,0,-0.1678,-0.1678,-0.1689,-0.1689,-0.1701,-0.1701,-0.1689,-0.1689,0,0,0,0,0,0,0,0,0,0,0,-0.1678,-0.1678,-0.1678,-0.1689,-0.1701,-0.1701,-0.1689,-0.1686,0,0,0,0,0,0,0,0,0,0,-0.1677,-0.1669,-0.1678,-0.1678,-0.1689,-0.1701,-0.1701,-0.1686,-0.1686,-0.1677,0,-0.1678,0,-0.1687,-0.1688,-0.1688,0,0,0,-0.1685,-0.1669,-0.1678,-0.1678,-0.1689,-0.1701,-0.1694,-0.1686,-0.1686,-0.1677,-0.1678,-0.1678,-0.1687,-0.1688,-0.1688,-0.1717,-0.1718,0,0,-0.1684,-0.1674,-0.1678,-0.1678,-0.169,-0.1694,-0.1695,-0.1687,-0.1681,-0.1678,-0.1678,-0.1687,-0.1688,-0.1688,-0.1717,-0.1717,0,0,0,-0.1685,-0.1673,-0.1683,-0.1678,-0.1684,-0.1695,-0.1695,-0.1682,-0.1686,-0.1678,-0.1687,-0.1688,-0.1687,-0.1716,-0.1717,-0.1746,0,0,0,-0.1685,-0.1675,-0.1683,-0.1676,-0.1685,-0.1686,-0.169,-0.1687,-0.1687,-0.1687,-0.1688,-0.1687,-0.1716,-0.1717,-0.1744,-0.1712,0,0,0,-0.1678,-0.1674,-0.1676,-0.1676,-0.1684,-0.1687,-0.1691,-0.1687,-0.1692,-0.1688,-0.1687,-0.1715,-0.1717,-0.1743,-0.1711,-0.1657,0,0,0,-0.1666,-0.1675,-0.1675,-0.1694,-0.1684,-0.1724,-0.1691,-0.1712,-0.1714,-0.1688,-0.1716,-0.1717,-0.1742,-0.171,-0.1658,-0.1523,-0.1511,0,0,-0.1675,-0.1675,-0.1691,-0.1693,-0.1733,-0.1722,-0.1757,-0.1742,-0.1725,-0.1715,-0.1715,-0.1745,-0.1711,-0.1657,-0.1584,-0.1569,0,0,0,-0.1694,-0.17,-0.1715,-0.1735,-0.1763,-0.1768,-0.1773,-0.1771,-0.1765,-0.1731,-0.1758,-0.1735,-0.17,-0.1621,-0.161,-0.1562,-0.1722,-0.1722,-0.1722,-0.1672,-0.1704,-0.1727,-0.1762,-0.1785,-0.1807,-0.1803,-0.1796,-0.1802,-0.1808,-0.1771,-0.1761,-0.1682,-0.1671,-0.1626,-0.1808,-0.1808,-0.1808,-0.1808,-0.1674,-0.1675,-0.1721,-0.175,-0.1774,-0.1798,-0.1816,-0.1817,-0.1789,-0.1811,-0.1777,-0.1671,-0.166,-0.1617,-0.181,-0.181,-0.181,-0.1809,-0.1809,-0.1639,-0.1639,-0.1669,-0.1703,-0.1728,-0.1767,-0.1753,-0.1777,-0.1775,-0.1757,-0.1629,-0.1627,-0.157,-0.1739,-0.1739,-0.1739,-0.1738,-0.1738,-0.1738,-0.1567,-0.1601,-0.1601,-0.1647,-0.1657,-0.1679,-0.1707,-0.1685,-0.1628,-0.1609,-0.1608,-0.1555,-0.1738,-0.172,-0.1733,-0.1733,-0.1734,-0.1735,-0.1735,-0.149,-0.1508,-0.1505,-0.1515,-0.1551,-0.1525,-0.158,-0.1488,-0.1463,-0.1388,-0.1362,-0.1517,-0.1471,-0.1478,-0.1453,-0.1396,-0.1396,-0.1396,-0.1396,-0.1415,-0.1433,-0.1404,-0.1405,-0.1425,-0.1447,-0.1315,-0.1262,-0.1205,-0.1149,-0.1201,-0.1212,-0.1228,-0.117,-0.1185,-0.1155,-0.1023,-0.1023,-0.1023,-0.1343,-0.1352,-0.1303,-0.1333,-0.1364,-0.134,-0.116,-0.0993,-0.0939,-0.101,-0.1164,-0.1179,-0.1207,-0.1235,-0.1156,-0.118,-0.1136,0,0]},{"header":{"parameterUnit":"m.s-1","parameterCategory":2,"la1":30.2992,"la2":30.254,"lo1":-89.0895,"lo2":-89.0443,"dy":0.0025,"dx":0.0025,"nx":19,"ny":19,"refTime":"2026-04-21T21:00:00:Z","depth":"0","parameterNumber":3,"parameterNumberName":"V-component_of_CURRENTS"},"data":[0,0,0,-0.0358,-0.0358,-0.0316,-0.0316,-0.0233,-0.0232,0,0,0,0,0,0,0,0,0,0,0,-0.0372,-0.0372,-0.0358,-0.0357,-0.0316,-0.0316,-0.0233,-0.0232,0,0,0,0,0,0,0,0,0,0,0,-0.0372,-0.0372,-0.0372,-0.0357,-0.0317,-0.0316,-0.0233,-0.027,0,0,0,0,0,0,0,0,0,0,-0.0312,-0.0334,-0.0372,-0.0372,-0.0357,-0.0317,-0.0316,-0.0272,-0.0267,-0.0246,0,-0.0245,0,-0.024,-0.0227,-0.0227,0,0,0,-0.0348,-0.0337,-0.0327,-0.0372,-0.0357,-0.0317,-0.0332,-0.0269,-0.0265,-0.024,-0.0244,-0.0241,-0.0239,-0.0226,-0.0226,-0.0148,-0.0148,0,0,-0.0351,-0.036,-0.0331,-0.0324,-0.0353,-0.0334,-0.0331,-0.0267,-0.0263,-0.0244,-0.024,-0.0237,-0.0226,-0.0225,-0.0148,-0.0148,0,0,0,-0.0363,-0.0362,-0.0353,-0.0328,-0.0324,-0.0333,-0.033,-0.0266,-0.0264,-0.0239,-0.0236,-0.0225,-0.0224,-0.0149,-0.0148,-0.0193,0,0,0,-0.0364,-0.037,-0.0355,-0.0359,-0.0326,-0.0299,-0.0331,-0.0268,-0.0261,-0.0237,-0.0225,-0.0223,-0.0149,-0.0149,-0.0193,-0.0213,0,0,0,-0.0372,-0.0371,-0.0369,-0.036,-0.0347,-0.0301,-0.0294,-0.0267,-0.026,-0.0226,-0.0223,-0.0149,-0.0149,-0.0192,-0.0212,-0.0158,0,0,0,-0.0379,-0.0399,-0.0369,-0.0388,-0.0347,-0.0336,-0.0295,-0.028,-0.0257,-0.0225,-0.0149,-0.0148,-0.0192,-0.0211,-0.0158,-0.0058,-0.0049,0,0,-0.0414,-0.0403,-0.0415,-0.0388,-0.04,-0.034,-0.0326,-0.028,-0.0235,-0.0167,-0.0165,-0.0193,-0.0212,-0.0158,-0.0025,-0.0017,0,0,0,-0.0433,-0.0442,-0.0441,-0.0437,-0.0411,-0.0369,-0.0319,-0.0278,-0.0215,-0.0219,-0.0168,-0.0178,-0.0143,-0.0082,-0.0076,0.007,-0.0146,-0.0146,-0.0146,-0.0485,-0.0476,-0.0494,-0.0474,-0.0453,-0.0385,-0.034,-0.0266,-0.0233,-0.0203,-0.0197,-0.0164,-0.0101,-0.0094,0.0053,-0.0175,-0.0175,-0.0175,-0.0175,-0.0543,-0.0556,-0.0528,-0.0544,-0.0486,-0.0457,-0.0349,-0.0306,-0.0209,-0.0201,-0.0164,-0.0111,-0.009,0.0066,-0.0178,-0.0177,-0.0177,-0.0177,-0.0177,-0.0583,-0.0588,-0.0592,-0.0595,-0.0563,-0.0495,-0.0419,-0.0345,-0.0248,-0.0217,-0.0093,-0.0091,0.0034,-0.0183,-0.0183,-0.0183,-0.0183,-0.0183,-0.0182,-0.0621,-0.0624,-0.065,-0.0644,-0.0636,-0.0586,-0.0456,-0.0364,-0.0203,-0.012,-0.0118,0.0079,-0.0165,-0.0178,-0.018,-0.0181,-0.0181,-0.0181,-0.0181,-0.067,-0.0672,-0.0711,-0.0719,-0.0688,-0.0567,-0.0487,-0.0232,-0.0127,-0.0016,0.0207,-0.0037,0.0,-0.0003,-0.001,0.0031,0.0031,0.0031,0.0031,-0.0698,-0.0704,-0.075,-0.0759,-0.072,-0.0562,-0.0272,-0.0023,0.0246,0.0381,0.0374,0.0403,0.0388,0.045,0.0436,0.0439,0.0593,0.0594,0.0595,-0.0722,-0.0736,-0.0765,-0.0775,-0.0729,-0.0492,-0.0115,0.0326,0.0613,0.0628,0.0557,0.0534,0.0582,0.0546,0.0644,0.0613,0.0618,0,0]}],[{"header":{"parameterUnit":"m.s-1","parameterCategory":2,"la1":30.2992,"la2":30.254,"lo1":-89.0895,"lo2":-89.0443,"dy":0.0025,"dx":0.0025,"nx":19,"ny":19,"refTime":"2026-04-21T21:00:00:Z","depth":"2","parameterNumber":2,"parameterNumberName":"U-component_of_CURRENTS"},"data":[0,0,0,-0.1562,-0.1563,-0.1576,-0.1576,-0.1557,-0.1557,0,0,0,0,0,0,0,0,0,0,0,-0.1552,-0.1552,-0.1562,-0.1563,-0.1576,-0.1576,-0.1557,-0.1557,0,0,0,0,0,0,0,0,0,0,0,-0.1552,-0.1552,-0.1552,-0.1563,-0.1576,-0.1576,-0.1557,-0.1555,0,0,0,0,0,0,0,0,0,0,-0.1547,-0.1541,-0.1552,-0.1552,-0.1563,-0.1576,-0.1576,-0.1555,-0.1555,-0.1543,0,-0.1545,0,-0.1554,-0.1556,-0.1556,0,0,0,-0.1558,-0.1541,-0.1549,-0.1552,-0.1563,-0.1576,-0.1568,-0.1556,-0.1556,-0.1543,-0.1545,-0.1545,-0.1554,-0.1555,-0.1555,-0.1574,-0.1574,0,0,-0.1557,-0.1549,-0.1549,-0.1549,-0.1566,-0.1568,-0.1569,-0.1556,-0.1552,-0.1545,-0.1545,-0.1554,-0.1555,-0.1555,-0.1573,-0.1574,0,0,0,-0.1558,-0.1548,-0.1558,-0.1549,-0.1557,-0.1569,-0.157,-0.1552,-0.1557,-0.1544,-0.1553,-0.1555,-0.1555,-0.1573,-0.1574,-0.1605,0,0,0,-0.1558,-0.155,-0.1557,-0.1552,-0.1557,-0.1559,-0.1566,-0.1557,-0.1557,-0.1553,-0.1555,-0.1555,-0.1573,-0.1573,-0.1603,-0.1575,0,0,0,-0.1552,-0.1549,-0.1551,-0.1551,-0.156,-0.156,-0.1563,-0.1557,-0.1562,-0.1555,-0.1555,-0.1572,-0.1573,-0.1602,-0.1574,-0.1523,0,0,0,-0.1541,-0.155,-0.1551,-0.1568,-0.156,-0.1593,-0.1563,-0.1582,-0.1582,-0.1555,-0.1573,-0.1573,-0.1601,-0.1573,-0.1523,-0.1391,-0.1379,0,0,-0.1549,-0.155,-0.1564,-0.1566,-0.16,-0.1591,-0.1621,-0.1605,-0.1589,-0.1572,-0.1573,-0.1604,-0.1574,-0.1523,-0.1444,-0.1429,0,0,0,-0.1566,-0.1571,-0.1584,-0.1602,-0.1625,-0.163,-0.1634,-0.163,-0.1623,-0.1594,-0.1614,-0.1592,-0.156,-0.1481,-0.1471,-0.1578,-0.1578,-0.1578,-0.1577,-0.1548,-0.1575,-0.1594,-0.1624,-0.1644,-0.1663,-0.1659,-0.165,-0.1654,-0.1661,-0.1628,-0.1619,-0.154,-0.1529,-0.166,-0.166,-0.166,-0.1661,-0.1661,-0.1548,-0.1548,-0.1588,-0.1613,-0.1634,-0.1655,-0.1669,-0.1671,-0.1644,-0.1664,-0.1632,-0.153,-0.1519,-0.1663,-0.1663,-0.1662,-0.1662,-0.1662,-0.1662,-0.1516,-0.1515,-0.1543,-0.1572,-0.1595,-0.1631,-0.1616,-0.1638,-0.1634,-0.1618,-0.1493,-0.1491,-0.1589,-0.1603,-0.1603,-0.1602,-0.1602,-0.1602,-0.1602,-0.145,-0.1481,-0.148,-0.1521,-0.1532,-0.1551,-0.1577,-0.1554,-0.1498,-0.1478,-0.1477,-0.1597,-0.1599,-0.1583,-0.1597,-0.1598,-0.1598,-0.1599,-0.1599,-0.1376,-0.1394,-0.1389,-0.1398,-0.1428,-0.1392,-0.1453,-0.1364,-0.134,-0.1268,-0.1381,-0.1388,-0.1343,-0.135,-0.1327,-0.1273,-0.1273,-0.1273,-0.1273,-0.1305,-0.1322,-0.1291,-0.1288,-0.1299,-0.1311,-0.117,-0.1107,-0.1113,-0.1083,-0.1091,-0.1103,-0.1119,-0.1063,-0.1077,-0.1049,-0.0923,-0.0922,-0.0922,-0.1234,-0.1242,-0.1192,-0.1215,-0.1233,-0.1193,-0.0993,-0.0809,-0.0767,-0.0912,-0.1076,-0.1241,-0.1283,-0.1299,-0.1233,-0.1247,-0.1212,0,0]},{"header":{"parameterUnit":"m.s-1","parameterCategory":2,"la1":30.2992,"la2":30.254,"lo1":-89.0895,"lo2":-89.0443,"dy":0.0025,"dx":0.0025,"nx":19,"ny":19,"refTime":"2026-04-21T21:00:00:Z","depth":"2","parameterNumber":3,"parameterNumberName":"V-component_of_CURRENTS"},"data":[0,0,0,-0.0385,-0.0385,-0.0346,-0.0346,-0.0269,-0.0269,0,0,0,0,0,0,0,0,0,0,0,-0.0398,-0.0398,-0.0385,-0.0385,-0.0346,-0.0346,-0.0269,-0.0269,0,0,0,0,0,0,0,0,0,0,0,-0.0398,-0.0398,-0.0398,-0.0385,-0.0346,-0.0346,-0.027,-0.0303,0,0,0,0,0,0,0,0,0,0,-0.0343,-0.0364,-0.0398,-0.0398,-0.0385,-0.0347,-0.0346,-0.0305,-0.0301,-0.0281,0,-0.0282,0,-0.0276,-0.0264,-0.0263,0,0,0,-0.0376,-0.0367,-0.0357,-0.0398,-0.0384,-0.0347,-0.0361,-0.0303,-0.0299,-0.0276,-0.028,-0.0278,-0.0275,-0.0263,-0.0263,-0.0189,-0.0189,0,0,-0.0378,-0.0388,-0.036,-0.0355,-0.0381,-0.0363,-0.036,-0.0301,-0.0298,-0.028,-0.0276,-0.0274,-0.0263,-0.0262,-0.0189,-0.0189,0,0,0,-0.039,-0.0389,-0.0381,-0.0358,-0.0354,-0.0362,-0.0359,-0.03,-0.0298,-0.0275,-0.0273,-0.0262,-0.0261,-0.019,-0.0189,-0.0233,0,0,0,-0.0391,-0.0397,-0.0382,-0.0387,-0.0356,-0.0331,-0.036,-0.0302,-0.0296,-0.0273,-0.0262,-0.0261,-0.019,-0.019,-0.0233,-0.0253,0,0,0,-0.0399,-0.0398,-0.0396,-0.0388,-0.0375,-0.0332,-0.0326,-0.0301,-0.0294,-0.0263,-0.026,-0.019,-0.019,-0.0232,-0.0252,-0.0203,0,0,0,-0.0406,-0.0423,-0.0396,-0.0412,-0.0376,-0.0364,-0.0326,-0.0312,-0.029,-0.0262,-0.019,-0.0189,-0.0232,-0.0251,-0.0203,-0.0118,-0.011,0,0,-0.0436,-0.0427,-0.0438,-0.0413,-0.0423,-0.0368,-0.0355,-0.0312,-0.0269,-0.0207,-0.0205,-0.0233,-0.0252,-0.0203,-0.0084,-0.0077,0,0,0,-0.0453,-0.0463,-0.046,-0.0457,-0.0432,-0.0395,-0.0348,-0.0309,-0.0251,-0.0254,-0.0208,-0.0218,-0.0186,-0.0134,-0.0129,-0.0187,-0.0187,-0.0187,-0.0187,-0.0503,-0.0494,-0.0511,-0.0493,-0.0473,-0.041,-0.0368,-0.0299,-0.0267,-0.0239,-0.0236,-0.0206,-0.0152,-0.0147,-0.0214,-0.0214,-0.0214,-0.0214,-0.0214,-0.056,-0.0573,-0.0547,-0.0562,-0.0509,-0.0483,-0.038,-0.034,-0.0249,-0.024,-0.0206,-0.0162,-0.0144,-0.0217,-0.0217,-0.0216,-0.0216,-0.0216,-0.0216,-0.0601,-0.0606,-0.0611,-0.0616,-0.0588,-0.0524,-0.0454,-0.0382,-0.0288,-0.0259,-0.0148,-0.0146,-0.0224,-0.0227,-0.0227,-0.0227,-0.0227,-0.0227,-0.0227,-0.0642,-0.0645,-0.0673,-0.0668,-0.0663,-0.0618,-0.0494,-0.0407,-0.0256,-0.0176,-0.0174,-0.0209,-0.0209,-0.0222,-0.0225,-0.0225,-0.0225,-0.0226,-0.0226,-0.0695,-0.0696,-0.0739,-0.0748,-0.0725,-0.065,-0.0545,-0.0307,-0.0199,-0.0096,-0.01,-0.0103,-0.0069,-0.0071,-0.0079,-0.0045,-0.0045,-0.0045,-0.0045,-0.0727,-0.0732,-0.0786,-0.0803,-0.0775,-0.0666,-0.0487,-0.0277,-0.0071,-0.001,-0.0013,-0.0014,-0.0021,0.0016,0.0011,0.0005,0.006,0.006,0.006,-0.0755,-0.077,-0.081,-0.0827,-0.0796,-0.0648,-0.0482,-0.0298,-0.0067,0.0057,-0.0065,-0.0024,-0.0031,-0.004,0.0014,0.0007,-0.0004,0,0]}],[{"header":{"parameterUnit":"m.s-1","parameterCategory":2,"la1":30.2992,"la2":30.254,"lo1":-89.0895,"lo2":-89.0443,"dy":0.0025,"dx":0.0025,"nx":19,"ny":19,"refTime":"2026-04-21T21:00:00:Z","depth":"4","parameterNumber":2,"parameterNumberName":"U-component_of_CURRENTS"},"data":[0,0,0,-0.1129,-0.1131,-0.1197,-0.1197,-0.1198,-0.1198,0,0,0,0,0,0,0,0,0,0,0,-0.1108,-0.1109,-0.1129,-0.1131,-0.1197,-0.1197,-0.1198,-0.1198,0,0,0,0,0,0,0,0,0,0,0,-0.1108,-0.1109,-0.1109,-0.1131,-0.1197,-0.1197,-0.1198,-0.1168,0,0,0,0,0,0,0,0,0,0,-0.1114,-0.1111,-0.1109,-0.111,-0.1131,-0.1196,-0.1197,-0.1168,-0.117,-0.1146,0,-0.1164,0,-0.118,-0.1197,-0.1196,0,0,0,-0.1128,-0.111,-0.1124,-0.111,-0.1132,-0.1196,-0.1166,-0.117,-0.1172,-0.1148,-0.1164,-0.1165,-0.118,-0.1196,-0.1196,-0.1173,-0.1172,0,0,-0.1124,-0.1119,-0.1123,-0.1126,-0.1158,-0.1164,-0.1168,-0.1172,-0.1178,-0.1164,-0.1165,-0.118,-0.1196,-0.1196,-0.1173,-0.1173,0,0,0,-0.1116,-0.1117,-0.1133,-0.1126,-0.1144,-0.1166,-0.1171,-0.1178,-0.1184,-0.1166,-0.118,-0.1196,-0.1196,-0.1173,-0.1173,-0.122,0,0,0,-0.1113,-0.1112,-0.1132,-0.1129,-0.1145,-0.1174,-0.1176,-0.1183,-0.1185,-0.118,-0.1196,-0.1196,-0.1173,-0.1173,-0.1219,-0.1224,0,0,0,-0.1104,-0.1111,-0.1121,-0.1129,-0.1159,-0.1175,-0.1181,-0.1185,-0.1193,-0.1196,-0.1196,-0.1173,-0.1173,-0.1218,-0.1223,-0.1189,0,0,0,-0.1092,-0.1108,-0.1121,-0.1145,-0.1158,-0.1188,-0.1181,-0.1208,-0.1215,-0.1196,-0.1173,-0.1173,-0.1218,-0.1222,-0.1188,-0.1038,0,0,0,-0.1101,-0.1109,-0.1122,-0.1136,-0.1167,-0.1178,-0.1203,-0.1214,-0.1198,-0.1165,-0.1165,-0.122,-0.1222,-0.1189,-0.1027,0,0,0,0,-0.1118,-0.1127,-0.1139,-0.1165,-0.1187,-0.1209,-0.1223,-0.1217,-0.1214,-0.1202,-0.1202,-0.1201,-0.1178,-0.109,-0.1172,-0.1172,-0.1172,-0.1172,-0.1172,-0.1109,-0.1129,-0.1151,-0.1178,-0.1201,-0.123,-0.1239,-0.1228,-0.1222,-0.1224,-0.1228,-0.1216,-0.1125,-0.1221,-0.1221,-0.1221,-0.1222,-0.1222,-0.1222,-0.1106,-0.1106,-0.1151,-0.1181,-0.1213,-0.1238,-0.1249,-0.1256,-0.1237,-0.124,-0.1216,-0.1132,-0.1226,-0.1225,-0.1225,-0.1224,-0.1224,-0.1224,-0.1223,-0.1075,-0.1075,-0.1117,-0.1159,-0.1204,-0.1244,-0.1241,-0.1269,-0.126,-0.126,-0.1125,-0.1222,-0.123,-0.1244,-0.1244,-0.1244,-0.1244,-0.1244,-0.1244,-0.101,-0.1049,-0.1069,-0.1129,-0.1158,-0.1195,-0.1237,-0.1214,-0.1227,-0.1137,-0.1261,-0.1222,-0.1222,-0.1228,-0.1242,-0.1242,-0.1242,-0.1243,-0.1243,-0.0932,-0.0965,-0.0982,-0.1014,-0.1067,-0.1076,-0.1158,-0.1089,-0.1044,-0.0975,-0.1051,-0.1061,-0.1016,-0.1019,-0.1018,-0.0969,-0.0967,-0.0965,0,-0.0864,-0.0886,-0.0888,-0.0905,-0.0906,-0.0986,-0.0904,-0.0903,-0.0898,-0.0871,-0.1022,-0.1111,-0.1117,-0.1069,-0.1069,-0.1067,0,0,0,-0.0796,-0.0814,-0.0781,-0.082,-0.0817,-0.0808,-0.0867,-0.0813,-0.0933,-0.0837,-0.0917,-0.093,-0.1123,-0.1237,-0.1189,-0.1188,-0.1196,0,0]},{"header":{"parameterUnit":"m.s-1","parameterCategory":2,"la1":30.2992,"la2":30.254,"lo1":-89.0895,"lo2":-89.0443,"dy":0.0025,"dx":0.0025,"nx":19,"ny":19,"refTime":"2026-04-21T21:00:00:Z","depth":"4","parameterNumber":3,"parameterNumberName":"V-component_of_CURRENTS"},"data":[0,0,0,-0.0269,-0.0268,-0.0254,-0.0254,-0.0203,-0.0203,0,0,0,0,0,0,0,0,0,0,0,-0.0275,-0.0275,-0.0269,-0.0268,-0.0254,-0.0254,-0.0203,-0.0203,0,0,0,0,0,0,0,0,0,0,0,-0.0275,-0.0275,-0.0275,-0.0268,-0.0255,-0.0254,-0.0203,-0.022,0,0,0,0,0,0,0,0,0,0,-0.0238,-0.0253,-0.0275,-0.0275,-0.0268,-0.0255,-0.0254,-0.0222,-0.0219,-0.0202,0,-0.0207,0,-0.0205,-0.0199,-0.0199,0,0,0,-0.0262,-0.0255,-0.025,-0.0275,-0.0268,-0.0255,-0.0259,-0.0221,-0.0218,-0.0199,-0.0206,-0.0205,-0.0204,-0.0199,-0.0198,-0.0133,-0.0132,0,0,-0.0262,-0.0271,-0.0252,-0.0249,-0.0273,-0.0259,-0.0258,-0.0219,-0.022,-0.0206,-0.0203,-0.0203,-0.0198,-0.0198,-0.0133,-0.0133,0,0,0,-0.0269,-0.0271,-0.0267,-0.0251,-0.0252,-0.0259,-0.0258,-0.0222,-0.0221,-0.0203,-0.0203,-0.0198,-0.0197,-0.0133,-0.0133,-0.0179,0,0,0,-0.0269,-0.0276,-0.0268,-0.0272,-0.0253,-0.0242,-0.0262,-0.0223,-0.0219,-0.0203,-0.0198,-0.0197,-0.0134,-0.0133,-0.0178,-0.0202,0,0,0,-0.0274,-0.0276,-0.0277,-0.0273,-0.027,-0.0243,-0.0239,-0.0223,-0.0219,-0.0199,-0.0197,-0.0134,-0.0133,-0.0178,-0.0201,-0.0167,0,0,0,-0.0279,-0.0289,-0.0277,-0.0287,-0.027,-0.0258,-0.0239,-0.0228,-0.0213,-0.0198,-0.0134,-0.0133,-0.0178,-0.02,-0.0167,-0.0183,0,0,0,-0.0294,-0.0291,-0.0296,-0.0285,-0.0292,-0.0259,-0.0249,-0.0224,-0.0192,-0.0144,-0.0143,-0.0179,-0.0201,-0.0167,-0.0137,0,0,0,0,-0.0303,-0.0312,-0.031,-0.0312,-0.0293,-0.0277,-0.0245,-0.0218,-0.0179,-0.018,-0.015,-0.0162,-0.0139,-0.0147,-0.0129,-0.0129,-0.0129,-0.013,-0.013,-0.0339,-0.0333,-0.0348,-0.0339,-0.0326,-0.0285,-0.026,-0.0211,-0.0185,-0.0166,-0.0178,-0.0157,-0.0165,-0.015,-0.0151,-0.0151,-0.0151,-0.0151,-0.0151,-0.0382,-0.0395,-0.0385,-0.0401,-0.0372,-0.0357,-0.0281,-0.0253,-0.0189,-0.0179,-0.0155,-0.0169,-0.0155,-0.0154,-0.0154,-0.0153,-0.0153,-0.0153,-0.0152,-0.0417,-0.0423,-0.0437,-0.0458,-0.0452,-0.0409,-0.0368,-0.0309,-0.0233,-0.0215,-0.018,-0.0167,-0.0185,-0.0192,-0.0192,-0.0191,-0.0191,-0.0191,-0.0191,-0.0449,-0.0459,-0.05,-0.0514,-0.0526,-0.0507,-0.0419,-0.0356,-0.0273,-0.0223,-0.0218,-0.0169,-0.0168,-0.0184,-0.0191,-0.0191,-0.0191,-0.0191,-0.0191,-0.0489,-0.0501,-0.0559,-0.0587,-0.0604,-0.0575,-0.0498,-0.0352,-0.0279,-0.0209,-0.0204,-0.0203,-0.0179,-0.0177,-0.0194,-0.0203,-0.0203,-0.0203,0,-0.0517,-0.0527,-0.0612,-0.0658,-0.0662,-0.0613,-0.0502,-0.0403,-0.029,-0.0303,-0.0287,-0.0289,-0.0286,-0.0267,-0.0265,-0.0289,0,0,0,-0.0544,-0.0569,-0.0635,-0.0687,-0.0693,-0.0562,-0.047,-0.0417,-0.0322,-0.0227,-0.0209,-0.0207,-0.0212,-0.0189,-0.0149,-0.0148,-0.0172,0,0]}]]